Flag for Spain Weather past 2 weeks in Valladolid, Spain

Now
63 °F

Sunny.


Feels Like: 63 °F
Forecast: 41 / 73 °F
Wind: 14 mph from Northwest

Location: Valladolid / Villanubla

Current Time: Mar 30, 2015 at 12:20:57 PM

Latest Report: Mar 30, 2015 at 12:00 PM


Visibility: 10 mi

Pressure: 30.42 "Hg

Humidity: 32%

Dew point: 32 °F

Location of ValladolidLocation

Historic Weather in Valladolid — Graph

°F

Valladolid temperature yesterday

Maximum temperature yesterday: 66 °F (at 5:00 PM)
Minimum temperature yesterday: 39 °F (at 8:30 AM)
Average temperature yesterday: 56 °F

Past Weeks' High & Low Weather Summary

 TemperatureHumidityPressure
High70 °F (Mar 28, 4:00 PM)100% (Mar 16, 7:00 AM)30.45 "Hg (Mar 16, 7:00 AM)
Low23 °F (Mar 16, 7:00 AM)27% (Mar 28, 4:00 PM)29.62 "Hg (Mar 23, 6:00 PM)
Average46 °F73%30.02 "Hg
* Reported Mar 15 10:00 AM — Mar 30 11:00 AM, Valladolid, Weather by CustomWeather, © 2015

Note: Actual official high and low records may vary slightly from our data, if they occured in-between our weather recording intervals... More about our weather records

Advertising

Valladolid weather history for previous 24 hours

 ConditionsComfort  
Time TempWeatherWind HumidityBarometerVisibility
11:00 AM
Mon, Mar 30
55 °FSunny.9 mph55%30.42 "Hg10 mi
10:30 AM52 °FPassing clouds.10 mph67%30.42 "HgN/A
10:00 AM50 °FSunny.10 mph76%30.39 "Hg10 mi
9:30 AM46 °FSunny.9 mph82%30.39 "Hg10 mi
9:00 AM43 °FClear.8 mph87%30.39 "Hg10 mi
8:30 AM41 °FClear.8 mph93%30.36 "Hg10 mi
8:00 AM41 °FClear.8 mph87%30.36 "Hg10 mi
7:30 AM43 °FClear.7 mph87%30.36 "Hg10 mi
7:00 AM43 °FClear.2 mph87%30.36 "Hg10 mi
9:30 PM
Sun, Mar 29
57 °FPassing clouds.7 mph59%30.36 "HgN/A
9:00 PM59 °FSunny.6 mph51%30.36 "Hg10 mi
8:30 PM63 °FSunny.9 mph42%30.36 "Hg10 mi
8:00 PM63 °FSunny.8 mph45%30.33 "Hg10 mi
7:30 PM64 °FSunny.9 mph40%30.33 "Hg10 mi
7:00 PM64 °FSunny.10 mph43%30.33 "Hg10 mi
6:30 PM64 °FSunny.12 mph40%30.33 "Hg10 mi
6:00 PM66 °FPassing clouds.12 mph37%30.33 "HgN/A
5:30 PM66 °FSunny.12 mph32%30.33 "Hg10 mi
5:00 PM66 °FPassing clouds.12 mph35%30.33 "HgN/A
4:30 PM64 °FPassing clouds.12 mph37%30.36 "HgN/A
4:00 PM64 °FPassing clouds.9 mph43%30.33 "HgN/A
3:30 PM64 °FPassing clouds.13 mph32%30.36 "HgN/A
3:00 PM63 °FPassing clouds.10 mph37%30.36 "HgN/A
2:30 PM63 °FPassing clouds.10 mph37%30.36 "HgN/A
2:00 PM61 °FPassing clouds.12 mph36%30.36 "HgN/A
1:30 PM61 °FPassing clouds.12 mph39%30.39 "HgN/A
1:00 PM59 °FPassing clouds.12 mph42%30.39 "HgN/A
12:30 PM57 °FPassing clouds.13 mph51%30.39 "HgN/A
12:00 PM55 °FPassing clouds.12 mph55%30.39 "HgN/A
Weather by CustomWeather, © 2015

See weather overviewHow to use our weather pages